K0TNT-10 Weather Reports


Display with metric or nautical units.
time (UTC)temp
F
wind
direction
speed
MPH
gust
MPH
rain 1hr
in
rain 24hr
in
rain mn
in
humidity
%
barometer
mb
20260906181553 98 103 0.0 0.0 0.00 0.00 0.00 44 1012.4
20260906180057 98 103 0.0 0.0 0.00 0.00 0.00 48 1012.7
20260906174538 98 97 0.0 0.0 0.00 0.00 0.00 50 1013.2
20260906173026 97 94 0.0 0.0 0.00 0.00 0.00 50 1013.2
20260906171528 95 84 0.0 0.0 0.00 0.00 0.00 51 1013.5
20260906170017 93 290 0.0 0.0 0.00 0.00 0.00 55 1013.7
20260906164532 93 79 0.0 0.0 0.00 0.00 0.00 58 1013.9
20260906163022 90 103 0.0 1.0 0.00 0.00 0.00 63 1014.1
20260906161510 89 297 0.0 0.0 0.00 0.00 0.00 64 1014.1
20260906160025 89 297 0.0 0.0 0.00 0.00 0.00 64 1014.0
20260906154522 88 297 0.0 0.0 0.00 0.00 0.00 63 1013.7
20260906153021 87 297 0.0 0.0 0.00 0.00 0.00 65 1013.6
20260906151506 86 297 0.0 0.0 0.00 0.00 0.00 65 1013.5
20260906150100 86 297 0.0 0.0 0.00 0.00 0.00 67 1013.6
20260906144600 86 297 0.0 0.0 0.00 0.00 0.00 66 1013.4
20260906144501 86 297 0.0 0.0 0.00 0.00 0.00 68 1013.4
20260906143123 85 297 0.0 0.0 0.00 0.00 0.00 69 1013.4
20260906141547 84 297 0.0 0.0 0.00 0.00 0.00 72 1013.6
20260906140048 81 297 0.0 0.0 0.00 0.00 0.00 77 1013.6
20260906134608 79 297 0.0 0.0 0.00 0.00 0.00 82 1013.7
20260906133058 77 297 0.0 0.0 0.00 0.00 0.00 83 1013.4
20260906131550 77 297 0.0 0.0 0.00 0.00 0.00 84 1013.3
20260906130047 76 297 0.0 0.0 0.00 0.00 0.00 85 1013.2
20260906124544 75 297 0.0 0.0 0.00 0.00 0.00 88 1013.0
20260906123106 73 297 0.0 0.0 0.00 0.00 0.00 91 1012.7
20260906121528 72 297 0.0 0.0 0.00 0.00 0.00 90 1012.5
20260906120033 72 297 0.0 0.0 0.00 0.00 0.00 91 1012.3
20260906114517 72 297 0.0 0.0 0.00 0.00 0.00 90 1012.2
20260906113016 72 297 0.0 0.0 0.00 0.00 0.00 90 1012.1
20260906111526 72 297 0.0 0.0 0.00 0.00 0.00 90 1012.0
20260906110037 72 297 0.0 0.0 0.00 0.00 0.00 90 1012.1
20260906104531 73 297 0.0 0.0 0.00 0.00 0.00 90 1011.9
20260906103021 73 297 0.0 0.0 0.00 0.00 0.00 90 1011.8
20260906101520 73 297 0.0 0.0 0.00 0.00 0.00 89 1011.7
20260906100012 73 297 0.0 0.0 0.00 0.00 0.00 89 1011.7
20260906094506 74 297 0.0 0.0 0.00 0.00 0.00 89 1011.7
20260906093007 74 297 0.0 0.0 0.00 0.00 0.00 89 1011.7
20260906091606 74 297 0.0 0.0 0.00 0.00 0.00 89 1011.7
20260906090052 74 297 0.0 0.0 0.00 0.00 0.00 88 1011.7
20260906084544 74 297 0.0 0.0 0.00 0.00 0.00 88 1011.5
20260906083039 75 297 0.0 0.0 0.00 0.00 0.00 87 1011.3
20260906081535 75 297 0.0 0.0 0.00 0.00 0.00 86 1011.3
20260906080031 75 297 0.0 0.0 0.00 0.00 0.00 85 1011.3
20260906074515 76 297 0.0 0.0 0.00 0.00 0.00 84 1011.2
20260906073011 76 297 0.0 0.0 0.00 0.00 0.00 83 1011.3
20260906071505 76 297 0.0 0.0 0.00 0.00 0.00 82 1011.3
20260906070101 76 297 0.0 0.0 0.00 0.00 0.00 83 1011.2
20260906064555 76 297 0.0 0.0 0.00 0.00 0.00 83 1011.3
20260906063055 77 297 0.0 0.0 0.00 0.00 0.00 83 1011.4
20260906061558 77 297 0.0 0.0 0.00 0.00 0.00 82 1011.4
20260906060053 77 297 0.0 0.0 0.00 0.00 0.00 80 1011.3
20260906054547 78 297 0.0 0.0 0.00 0.00 0.00 80 1011.3
20260906053108 78 297 0.0 0.0 0.00 0.00 0.00 80 1011.3
20260906051548 78 297 0.0 0.0 0.00 0.00 0.00 79 1011.4
20260906050012 78 297 0.0 0.0 0.00 0.00 0.00 79 1011.3
20260906044507 79 297 0.0 0.0 0.00 0.00 0.00 78 1011.2
20260906043023 79 297 0.0 0.0 0.00 0.00 0.00 78 1011.1
20260906041527 79 297 0.0 0.0 0.00 0.00 0.00 78 1011.0
20260906040017 80 297 0.0 0.0 0.00 0.00 0.00 77 1011.0
20260906034541 80 297 0.0 0.0 0.00 0.00 0.00 76 1010.8
20260906033109 80 297 0.0 0.0 0.00 0.00 0.00 75 1010.5
20260906031558 81 297 0.0 0.0 0.00 0.00 0.00 75 1010.5
20260906030053 81 297 0.0 0.0 0.00 0.00 0.00 74 1010.3
20260906024553 82 297 0.0 0.0 0.00 0.00 0.00 73 1010.1
20260906023052 82 297 0.0 0.0 0.00 0.00 0.00 72 1009.8
20260906021543 83 297 0.0 0.0 0.00 0.00 0.00 71 1009.4
20260906020041 84 297 0.0 0.0 0.00 0.00 0.00 69 1009.0
20260906014543 84 297 0.0 0.0 0.00 0.00 0.00 67 1009.0
20260906013049 85 297 0.0 0.0 0.00 0.00 0.00 65 1008.8
20260906011544 87 297 0.0 0.0 0.00 0.00 0.00 63 1008.8
20260906010043 89 297 0.0 0.0 0.00 0.00 0.00 58 1008.6
20260906004535 90 297 0.0 0.0 0.00 0.00 0.00 55 1008.5
20260906003023 92 297 0.0 0.0 0.00 0.00 0.00 52 1008.6
20260906001517 94 297 0.0 0.0 0.00 0.00 0.00 50 1008.5
20260906000037 95 297 0.0 0.0 0.00 0.00 0.00 48 1008.4
20260905234512 95 297 0.0 0.0 0.00 0.00 0.00 46 1008.5
20260905233007 96 297 0.0 0.0 0.00 0.00 0.00 43 1008.6
20260905231501 98 295 0.0 2.0 0.00 0.00 0.00 41 1008.6
20260905230059 97 70 0.0 1.0 0.00 0.00 0.00 41 1008.6
20260905224555 98 112 0.0 1.0 0.00 0.00 0.00 42 1008.6
20260905223048 98 101 0.0 1.0 0.00 0.00 0.00 41 1008.7
20260905221548 99 299 0.0 2.0 0.00 0.00 0.00 40 1008.8
20260905220042 99 339 0.0 2.0 0.00 0.00 0.00 38 1008.9
20260905214528 100 86 0.0 9.0 0.00 0.00 0.00 37 1009.0
20260905213029 100 328 0.0 5.0 0.00 0.00 0.00 38 1009.1
20260905211512 100 280 0.0 3.0 0.00 0.00 0.00 36 1009.3
20260905210006 101 290 1.0 5.0 0.00 0.00 0.00 36 1009.7
20260905204505 102 44 0.0 5.0 0.00 0.00 0.00 36 1010.0
20260905203100 102 330 0.0 6.0 0.00 0.00 0.00 36 1010.4
20260905201545 101 295 0.0 3.0 0.00 0.00 0.00 38 1010.8
20260905200040 103 295 1.0 6.0 0.00 0.00 0.00 35 1011.4
20260905194520 103 69 0.0 5.0 0.00 0.00 0.00 36 1012.1
20260905193032 103 73 0.0 3.0 0.00 0.00 0.00 38 1012.7
20260905191530 0 69 1.0 5.0 0.00 0.00 0.00 1013.0
20260905190028 0 93 0.0 3.0 0.00 0.00 0.00 1013.1
20260905184542 0 85 0.0 7.0 0.00 0.00 0.00 1013.3
20260905183038 0 358 0.0 6.0 0.00 0.00 0.00 1013.4